sat.trackr.live / text

‹ back to catalog

STARLINK-32342

NORAD 61217 · 2024-171T

PAYLOAD ACTIVE UNKNOWN

§ Identity

Operator
Country
US
Launch date
2024-09-20
Launch site
AFWTR
Launch vehicle
Mass (kg)
RCS (m²)

Purposes: comms

External: N2YO · Heavens-Above · Gunter

§ Orbital elements

Epoch: 2026-09-21T21:31:40.598688Z

Period
94.01 min
Inclination
53.1590°
Eccentricity
0.0002505
Mean motion
15.31715953 rev/d
Perigee alt
469.0 km
Apogee alt
472.4 km
Semi-major
6,848.8 km
B*
9.3056e-5
RAAN
130.0232°
Arg perigee
28.2341°
Mean anomaly
331.8796°
Rev number
11,333

§ Raw data

STARLINK-323421 61217U 24171T   26264.89699767  .00002524  00000+0  93056-4 0  99922 61217  53.1590 130.0232 0002505  28.2341 331.8796 15.31715953113333

JSON: /api/v1/satellites/61217 · /tle

For live sub-satellite position, see the globe view (requires WebGL).

§ Visibility from observer

Set your observer location to see the next 7 days of passes ≥ 10°. The values pass through the URL so the page stays shareable.

No JS? Fill the form by hand. The geolocation button needs JavaScript.